Мадрид, метеограме

Мадрид: време по сату
Четвтак, 14 Новембра
Време Падавине Температура Осећа се Притисак Влажност Ветар
13:00 0.01 мм +8.9° +8.1° 696.000 мм.ж.с 44% 8 м/с, З
14:00 0.01 мм +9° +8.1° 695.000 мм.ж.с 45% 8 м/с, З
15:00 0.01 мм +9° +8.2° 694.000 мм.ж.с 46% 9 м/с, ЈЗ
16:00 0.34 мм +7.9° +7.3° 694.000 мм.ж.с 56% 9 м/с, З
17:00 0.34 мм +6.7° +6.4° 694.000 мм.ж.с 66% 8 м/с, З
18:00 0.34 мм +5.5° +5.4° 694.000 мм.ж.с 76% 8 м/с, З
19:00 0.03 мм +5.5° +5.3° 694.000 мм.ж.с 71% 8 м/с, З
20:00 0.03 мм +5.5° +5.1° 695.000 мм.ж.с 66% 7 м/с, СЗ
21:00 0.03 мм +5.4° +5° 695.000 мм.ж.с 62% 7 м/с, СЗ
22:00 0.05 мм +5.1° +4.7° 695.000 мм.ж.с 65% 6 м/с, СЗ
23:00 0.05 мм +4.8° +4.5° 696.000 мм.ж.с 69% 6 м/с, З
Петак, 15 Новембра
Време Падавине Температура Осећа се Притисак Влажност Ветар
00:00 0.05 мм +4.5° +4.2° 696.000 мм.ж.с 73% 5 м/с, З
01:00 0.01 мм +4.2° +3.9° 696.000 мм.ж.с 73% 5 м/с, З
02:00 0.01 мм +3.9° +3.7° 696.000 мм.ж.с 74% 4 м/с, З
03:00 0.01 мм +3.6° +3.4° 696.000 мм.ж.с 75% 4 м/с, З
04:00 0 мм +3.6° +3.3° 696.000 мм.ж.с 74% 4 м/с, З
05:00 0 мм +3.5° +3.3° 696.000 мм.ж.с 74% 4 м/с, З
06:00 0 мм +3.5° +3.2° 696.000 мм.ж.с 73% 4 м/с, З
07:00 0.02 мм +4° +3.8° 697.000 мм.ж.с 71% 4 м/с, З
08:00 0.02 мм +4.6° +4.3° 697.000 мм.ж.с 68% 5 м/с, З
09:00 0.02 мм +5.2° +4.8° 698.000 мм.ж.с 65% 5 м/с, З
10:00 0.01 мм +6.3° +5.8° 698.000 мм.ж.с 60% 6 м/с, З
11:00 0.01 мм +7.4° +6.8° 698.000 мм.ж.с 55% 6 м/с, СЗ
12:00 0.01 мм +8.5° +7.8° 697.000 мм.ж.с 50% 7 м/с, СЗ
13:00 0.02 мм +8.3° +7.6° 697.000 мм.ж.с 51% 7 м/с, СЗ
14:00 0.02 мм +8.1° +7.4° 697.000 мм.ж.с 51% 7 м/с, СЗ
15:00 0.02 мм +7.9° +7.2° 697.000 мм.ж.с 52% 8 м/с, СЗ
16:00 0.02 мм +7° +6.5° 697.000 мм.ж.с 55% 6 м/с, СЗ
17:00 0.02 мм +6.2° +5.7° 697.000 мм.ж.с 59% 5 м/с, СЗ
18:00 0.02 мм +5.4° +4.9° 698.000 мм.ж.с 62% 4 м/с, СЗ
19:00 0.12 мм +5.1° +4.7° 698.000 мм.ж.с 64% 4 м/с, СЗ
20:00 0.12 мм +4.8° +4.5° 699.000 мм.ж.с 67% 4 м/с, СЗ
21:00 0.12 мм +4.5° +4.2° 700.000 мм.ж.с 70% 4 м/с, СЗ
22:00 0 мм +4.3° +4° 700.000 мм.ж.с 71% 3 м/с, СЗ
23:00 0 мм +4.1° +3.8° 700.000 мм.ж.с 72% 3 м/с, СЗ
Субота, 16 Новембра
Време Падавине Температура Осећа се Притисак Влажност Ветар
00:00 0 мм +3.9° +3.7° 701.000 мм.ж.с 73% 2 м/с, СЗ
01:00 0 мм +3.4° +3.2° 701.000 мм.ж.с 72% 2 м/с, СЗ
02:00 0 мм +3° +2.7° 701.000 мм.ж.с 72% 2 м/с, СЗ
03:00 0 мм +2.5° +2.2° 701.000 мм.ж.с 72% 2 м/с, СЗ
04:00 0 мм +2.4° +2.1° 701.000 мм.ж.с 72% 2 м/с, СЗ
05:00 0 мм +2.2° +2° 702.000 мм.ж.с 73% 2 м/с, СЗ
06:00 0 мм +2.1° +1.9° 702.000 мм.ж.с 74% 1 м/с, СЗ
07:00 0.01 мм +2.9° +2.6° 702.000 мм.ж.с 70% 2 м/с, СЗ
08:00 0.01 мм +3.8° +3.4° 703.000 мм.ж.с 67% 2 м/с, СЗ
09:00 0.01 мм +4.6° +4.2° 704.000 мм.ж.с 64% 2 м/с, СЗ
10:00 0 мм +5.7° +5.2° 704.000 мм.ж.с 59% 2 м/с, З
11:00 0 мм +6.8° +6.3° 703.000 мм.ж.с 55% 3 м/с, З
12:00 0 мм +7.9° +7.3° 703.000 мм.ж.с 50% 4 м/с, З

Такође

Meteograms hourly weather Мапе времена Преглед времена
Meteograms hourly weather Мапе времена Преглед времена
 
Време у Србији:
О проjекту
© meteoprog.rs 2003-2019.
Meteoprog.ua - погода в Украине 0.0583
sitemap